Вернуться в каталог

FENGYUN 1C DEB

АктивенSSO
NORAD 30108·DEBRIS·🇨🇳 China

Запущен May 10, 1999 с Taiyuan Satellite Launch Center

Loading…

Ближайшие Пролёты (ближайшие 24 часа)

TLE

СвежийSource: Space-Track

Эпоха: Sep 14, 2026, 11:14 UTC

1 30108U 99025RM  26257.46847161  .00000405  00000-0  18435-3 0  9999
2 30108  98.6864 241.9181 0195845 309.8989 203.0973 14.17521398 15033

Отслеживайте FENGYUN 1C DEB в реальном времени с AllMySat

Download on the App Store